TimeCDT,TemperatureF,Dew PointF,Humidity,Sea Level PressureIn,VisibilityMPH,Wind Direction,Wind SpeedMPH,Gust SpeedMPH,PrecipitationIn,Events,Conditions,WindDirDegrees,DateUTC
12:15 AM,37.4,32.0,81,30.08,10.0,NW,8.1,-,N/A,,Overcast,310,2013-03-11 05:15:00
12:35 AM,37.4,32.0,81,30.07,10.0,WNW,6.9,-,N/A,,Overcast,300,2013-03-11 05:35:00
12:55 AM,35.6,32.0,87,30.06,10.0,WNW,6.9,-,N/A,,Overcast,300,2013-03-11 05:55:00
1:15 AM,35.6,32.0,87,30.06,10.0,NW,8.1,-,N/A,,Overcast,310,2013-03-11 06:15:00
1:55 AM,35.6,32.0,87,30.06,10.0,NW,8.1,-,N/A,,Overcast,320,2013-03-11 06:55:00
2:15 AM,35.6,32.0,87,30.06,10.0,NW,4.6,-,N/A,,Scattered Clouds,320,2013-03-11 07:15:00
2:35 AM,35.6,32.0,87,30.05,10.0,NW,3.5,-,N/A,,Clear,310,2013-03-11 07:35:00
2:55 AM,35.6,32.0,87,30.05,10.0,WNW,3.5,-,N/A,,Clear,300,2013-03-11 07:55:00
3:35 AM,33.8,32.0,93,30.04,10.0,Calm,Calm,-,N/A,,Clear,0,2013-03-11 08:35:00
3:55 AM,33.8,32.0,93,30.03,10.0,Calm,Calm,-,N/A,,Clear,0,2013-03-11 08:55:00
4:15 AM,33.8,32.0,93,30.04,10.0,West,3.5,-,N/A,,Clear,280,2013-03-11 09:15:00
4:35 AM,33.8,32.0,93,30.03,10.0,Calm,Calm,-,N/A,,Clear,0,2013-03-11 09:35:00
4:55 AM,33.8,32.0,93,30.03,10.0,WNW,6.9,-,N/A,,Clear,300,2013-03-11 09:55:00
5:15 AM,33.8,32.0,93,30.02,10.0,WNW,6.9,-,N/A,,Clear,300,2013-03-11 10:15:00
5:35 AM,33.8,32.0,93,30.02,10.0,NW,8.1,-,N/A,,Clear,310,2013-03-11 10:35:00
5:55 AM,33.8,32.0,93,30.03,10.0,NW,9.2,-,N/A,,Clear,320,2013-03-11 10:55:00
6:15 AM,32.0,32.0,100,30.03,10.0,NW,9.2,-,N/A,,Clear,320,2013-03-11 11:15:00
6:35 AM,32.0,30.2,93,30.04,10.0,NW,8.1,-,N/A,,Clear,310,2013-03-11 11:35:00
6:55 AM,32.0,30.2,93,30.04,10.0,WNW,8.1,-,N/A,,Clear,300,2013-03-11 11:55:00
7:15 AM,32.0,30.2,93,30.05,10.0,WNW,6.9,-,N/A,,Clear,300,2013-03-11 12:15:00
7:35 AM,32.0,28.4,87,30.05,10.0,WNW,5.8,-,N/A,,Clear,290,2013-03-11 12:35:00
7:55 AM,32.0,28.4,87,30.05,10.0,WNW,5.8,-,N/A,,Clear,300,2013-03-11 12:55:00
8:15 AM,32.0,28.4,87,30.06,10.0,WNW,8.1,-,N/A,,Clear,300,2013-03-11 13:15:00
8:35 AM,32.0,28.4,87,30.07,10.0,WNW,6.9,-,N/A,,Clear,300,2013-03-11 13:35:00
8:55 AM,33.8,28.4,81,30.07,10.0,WNW,10.4,-,N/A,,Clear,300,2013-03-11 13:55:00
9:15 AM,33.8,28.4,81,30.07,10.0,NW,11.5,-,N/A,,Clear,310,2013-03-11 14:15:00
9:35 AM,33.8,28.4,81,30.07,10.0,WNW,9.2,-,N/A,,Clear,300,2013-03-11 14:35:00
9:55 AM,35.6,30.2,81,30.08,10.0,NW,11.5,-,N/A,,Clear,310,2013-03-11 14:55:00
10:15 AM,35.6,28.4,75,30.07,10.0,NW,10.4,-,N/A,,Clear,320,2013-03-11 15:15:00
10:35 AM,35.6,28.4,75,30.08,10.0,WNW,10.4,16.1,N/A,,Clear,300,2013-03-11 15:35:00
10:55 AM,37.4,28.4,70,30.08,10.0,WNW,13.8,-,N/A,,Clear,290,2013-03-11 15:55:00
11:15 AM,37.4,26.6,65,30.09,10.0,NW,8.1,-,N/A,,Clear,320,2013-03-11 16:15:00
11:35 AM,41.0,28.4,61,30.08,10.0,NW,13.8,-,N/A,,Clear,320,2013-03-11 16:35:00
11:55 AM,41.0,28.4,61,30.08,10.0,WNW,13.8,18.4,N/A,,Clear,300,2013-03-11 16:55:00
12:15 PM,42.8,26.6,53,30.08,10.0,WNW,6.9,17.3,N/A,,Clear,290,2013-03-11 17:15:00
12:35 PM,42.8,26.6,53,30.07,10.0,WNW,8.1,-,N/A,,Clear,300,2013-03-11 17:35:00
12:55 PM,44.6,26.6,49,30.07,10.0,WNW,9.2,-,N/A,,Clear,300,2013-03-11 17:55:00
1:15 PM,44.6,26.6,49,30.06,10.0,WNW,4.6,-,N/A,,Clear,290,2013-03-11 18:15:00
1:35 PM,48.2,28.4,46,30.06,10.0,NW,6.9,-,N/A,,Clear,320,2013-03-11 18:35:00
1:55 PM,48.2,26.6,43,30.05,10.0,West,9.2,-,N/A,,Clear,280,2013-03-11 18:55:00
2:15 PM,51.8,26.6,38,30.04,10.0,West,9.2,16.1,N/A,,Clear,280,2013-03-11 19:15:00
2:35 PM,51.8,26.6,38,30.03,10.0,NW,10.4,16.1,N/A,,Clear,320,2013-03-11 19:35:00
2:55 PM,53.6,26.6,35,30.02,10.0,WNW,12.7,18.4,N/A,,Clear,290,2013-03-11 19:55:00
3:15 PM,51.8,26.6,38,30.02,10.0,NW,15.0,-,N/A,,Clear,320,2013-03-11 20:15:00
3:35 PM,53.6,26.6,35,30.01,10.0,NNW,9.2,-,N/A,,Clear,330,2013-03-11 20:35:00
3:55 PM,53.6,26.6,35,30.01,10.0,NNW,8.1,17.3,N/A,,Clear,330,2013-03-11 20:55:00
4:15 PM,55.4,28.4,36,30.00,10.0,WNW,13.8,-,N/A,,Clear,300,2013-03-11 21:15:00
4:35 PM,55.4,28.4,36,30.00,10.0,NW,8.1,-,N/A,,Clear,320,2013-03-11 21:35:00
4:55 PM,55.4,28.4,36,30.00,10.0,NNW,8.1,-,N/A,,Clear,330,2013-03-11 21:55:00
5:15 PM,55.4,28.4,36,30.00,10.0,NW,9.2,-,N/A,,Clear,320,2013-03-11 22:15:00
5:35 PM,55.4,28.4,36,30.00,10.0,NW,6.9,-,N/A,,Clear,310,2013-03-11 22:35:00
5:55 PM,55.4,28.4,36,29.99,10.0,WNW,8.1,-,N/A,,Clear,290,2013-03-11 22:55:00
6:15 PM,55.4,28.4,36,29.99,10.0,WNW,4.6,-,N/A,,Clear,300,2013-03-11 23:15:00
6:35 PM,55.4,30.2,38,29.99,10.0,NW,4.6,-,N/A,,Clear,320,2013-03-11 23:35:00
6:55 PM,55.4,30.2,38,30.00,10.0,NW,8.1,-,N/A,,Clear,320,2013-03-11 23:55:00
7:15 PM,53.6,30.2,41,30.00,10.0,NNW,3.5,-,N/A,,Clear,330,2013-03-12 00:15:00
7:35 PM,51.8,32.0,47,30.00,10.0,NNW,3.5,-,N/A,,Clear,330,2013-03-12 00:35:00
7:55 PM,51.8,30.2,44,30.01,10.0,Calm,Calm,-,N/A,,Clear,0,2013-03-12 00:55:00
8:15 PM,51.8,32.0,47,30.01,10.0,Calm,Calm,-,N/A,,Clear,0,2013-03-12 01:15:00
8:35 PM,51.8,30.2,44,30.02,10.0,Calm,Calm,-,N/A,,Clear,0,2013-03-12 01:35:00
8:55 PM,51.8,30.2,44,30.02,10.0,Calm,Calm,-,N/A,,Clear,0,2013-03-12 01:55:00
9:15 PM,50.0,32.0,50,30.03,10.0,Calm,Calm,-,N/A,,Clear,0,2013-03-12 02:15:00
9:35 PM,48.2,32.0,54,30.03,10.0,NE,3.5,-,N/A,,Clear,40,2013-03-12 02:35:00
9:55 PM,44.6,32.0,61,30.03,10.0,Calm,Calm,-,N/A,,Clear,0,2013-03-12 02:55:00
10:15 PM,44.6,32.0,61,30.03,10.0,East,4.6,-,N/A,,Clear,90,2013-03-12 03:15:00
10:35 PM,44.6,30.2,57,30.03,10.0,ESE,5.8,-,N/A,,Clear,120,2013-03-12 03:35:00
10:55 PM,44.6,32.0,61,30.03,10.0,SE,5.8,-,N/A,,Clear,130,2013-03-12 03:55:00
11:15 PM,44.6,30.2,57,30.04,10.0,ESE,4.6,-,N/A,,Clear,120,2013-03-12 04:15:00
11:35 PM,44.6,28.4,53,30.03,10.0,East,5.8,-,N/A,,Clear,90,2013-03-12 04:35:00
11:55 PM,44.6,28.4,53,30.03,10.0,East,5.8,-,N/A,,Clear,90,2013-03-12 04:55:00